sat.trackr.live / text

‹ back to catalog

STARLINK-30321

NORAD 57679 · 2023-124S

PAYLOAD ACTIVE UNKNOWN

§ Identity

Operator
Country
US
Launch date
2023-08-22
Launch site
AFWTR
Launch vehicle
Mass (kg)
RCS (m²)

Purposes: comms

External: N2YO · Heavens-Above · Gunter

§ Orbital elements

Epoch: 2026-09-20T14:06:15.806016Z

Period
93.85 min
Inclination
53.1621°
Eccentricity
0.0001332
Mean motion
15.34388091 rev/d
Perigee alt
461.8 km
Apogee alt
463.6 km
Semi-major
6,840.9 km
B*
5.6644e-6
RAAN
18.9906°
Arg perigee
88.5490°
Mean anomaly
271.5665°
Rev number
17,344

§ Raw data

STARLINK-303211 57679U 23124S   26263.58768294 -.00000185  00000+0  56644-5 0  99982 57679  53.1621  18.9906 0001332  88.5490 271.5665 15.34388091173443

JSON: /api/v1/satellites/57679 · /tle

For live sub-satellite position, see the globe view (requires WebGL).

§ Visibility from observer

Set your observer location to see the next 7 days of passes ≥ 10°. The values pass through the URL so the page stays shareable.

No JS? Fill the form by hand. The geolocation button needs JavaScript.